Regional Weather Roundup
Issued by NWS

Home | Current Version | Previous Version | Text Only | Print | Product List | Glossary Off
Versions: 1 2 3 4 5 6 7 8 9 10 11 12 13 14 15 16 17 18 19 20 21 22 23 24 25 26 27 28 29 30 31 32 33 34 35 36 37 38 39 40 41 42 43 44 45 46 47 48 49 50

000
ASUS43 KMPX 240801
RWRMN
WEATHER ROUNDUP FOR MINNESOTA
NATIONAL WEATHER SERVICE TWIN CITIES/CHANHASSEN MN
300 AM CDT THU APR 24 2014


NOTE: "FAIR" INDICATES FEW OR NO CLOUDS BELOW 12,000 FEET WITH NO
SIGNIFICANT WEATHER AND/OR OBSTRUCTIONS TO VISIBILITY. N/A MEANS
CURRENT SKY AND/OR WEATHER CONDITIONS ARE NOT AVAILABLE.

MNZ060>063-068>070-240900-
   Twin Cities Metro

CITY           SKY/WX    TMP DP  RH WIND       PRES   REMARKS
TWIN CITIES    CLOUDY    43  38  82 SE16      29.86F
ST PAUL        CLOUDY    45  37  73 SE16G22   29.89F
CRYSTAL        CLOUDY    46  36  68 SE15G22   29.85F
BLAINE         CLOUDY    45  41  87 E10       29.87F
EDEN PRAIRIE   CLOUDY    44  38  79 E16G24    29.84F
LAKEVILLE      LGT RAIN  39  37  93 E14       29.84F
SOUTH ST PAUL  CLOUDY    47  39  72 SE9       29.87F
LAKE ELMO      CLOUDY    43  37  81 E10       29.90S
$$
MNZ001>005-007-008-013>017-022>024-027-028-240900-
   Northwest Minnesota

CITY           SKY/WX    TMP DP  RH WIND       PRES   REMARKS
BEMIDJI        CLOUDY    34  33  97 E9        29.86F WCI  26
HALLOCK        CLOUDY    39  36  87 SE17G23   29.82F FOG
ROSEAU         CLOUDY    37  34  87 SE12      29.88F
WARROAD        CLOUDY    37  34  87 E10       29.89F
THIEF RVR FALL CLOUDY    37  32  81 E15       29.84F
CROOKSTON      CLOUDY    37  37 100 SE13      29.82F
FOSSTON        CLOUDY    36  34  93 SE13      29.84F
DETROIT LAKES  DRIZZLE   37  37 100 SE15      29.80F
MOORHEAD       CLOUDY    43  43 100 SE12      29.80S
PARK RAPIDS    CLOUDY    38  36  92 SE9       29.83F
$$
MNZ006-009>011-018-025>026-240900-
   North Central Minnesota

CITY           SKY/WX    TMP DP  RH WIND       PRES   REMARKS
BAUDETTE       CLOUDY    37  35  92 SE8       29.92F
FLAG ISLAND    DRIZZLE   36  34  93 SE9       29.93S
INTL FALLS     LGT RAIN  37  34  89 SE8       29.97F
WASKISH        CLOUDY    36  36 100 E12G17    29.90F
LONGVILLE      CLOUDY    37  36  93 E5        29.88F
GRAND RAPIDS   CLOUDY    34  30  86 E7G16     29.92F WCI  28
CRANE LAKE     RAIN      34  28  80 CALM      30.03S
ORR            RAIN      36  32  87 SE8       29.97S
COOK           LGT RAIN  36  34  93 SE3       30.00S
$$
MNZ012-019>021-037-240900-
   Northeast Minnesota

CITY           SKY/WX    TMP DP  RH WIND       PRES   REMARKS
DULUTH         DRIZZLE   36  34  92 E10       29.98F FOG
ELY            RAIN      36  34  93 SE3       30.01S
HIBBING        LGT RAIN  35  32  88 E9        29.97F WCI  28
EVELETH        LGT RAIN  34  34 100 E5        30.00S WCI  30
DULUTH HARBOR  MIX PCPN  34  32  93 CALM      30.02F
TWO HARBORS    LGT RAIN  36  30  80 E3        30.00F
SILVER BAY     DRIZZLE   34  34 100 CALM      30.02S
GRAND MARAIS     N/A     40  25  55 NE5       30.04F
G MARAIS ARPRT CLOUDY    36  18  48 CALM      30.03S
$$
MNZ029>031-032-039>041-046>048-054>057-064-240900-
   West Central Minnesota

CITY           SKY/WX    TMP DP  RH WIND       PRES   REMARKS
FERGUS FALLS   CLOUDY    41  36  81 SE13G18   29.77R
WHEATON        CLOUDY    43  39  87 SE10      29.80S
MORRIS         CLOUDY    43  37  81 SE15      29.77S
ALEXANDRIA     CLOUDY    40  36  86 SE18      29.80F
ELBOW LAKE     CLOUDY    41  37  85 SE16G22   29.77F
WADENA         CLOUDY    37  36  93 SE12      29.82F
GLENWOOD       CLOUDY    39  37  93 E14       29.81F
APPLETON       CLOUDY    43  37  81 E12       29.76S
BENSON         MIX PCPN  43  37  81 SE13G21   29.78F
ORTONVILLE     CLOUDY    41  36  81 E10       29.76F
MADISON        CLOUDY    45  41  87 SE12      29.75F
WILLMAR        CLOUDY    43  36  75 E16G23    29.80F
$$
MNZ033>034-036-042>043-049>051-058-059-240900-
   Central Minnesota

CITY           SKY/WX    TMP DP  RH WIND       PRES   REMARKS
ST CLOUD       CLOUDY    43  37  79 E8        29.85F
SAUK CENTRE    CLOUDY    40  37  87 E8        29.82F
PAYNESVILLE    CLOUDY    42  36  80 E13       29.82F
AITKIN         CLOUDY    39  36  87 E7        29.88F
PINE RIVER     CLOUDY    37  37 100 SE8       29.90F
BRAINERD       CLOUDY    43  36  76 SE9       29.87F
STAPLES        CLOUDY    39  36  87 SE6       29.83F
LONG PRAIRIE   CLOUDY    39  36  87 E14G21    29.82F
LITTLE FALLS   CLOUDY    39  36  87 E9        29.84F
LITCHFIELD     CLOUDY    43  39  87 E16       29.82F
BUFFALO        CLOUDY    43  36  76 E8G17     29.86F
MAPLE LAKE     DRIZZLE   43  39  86 E7        29.85F
$$
MNZ037-044-045-052-053-240900-
   East Central Minnesota

CITY           SKY/WX    TMP DP  RH WIND       PRES   REMARKS
PRINCETON      CLOUDY    43  39  87 E8        29.88S
MORA           CLOUDY    37  34  87 E8        29.91F
CAMBRIDGE      RAIN      45  36  70 E7        29.87F
RUSH CITY      CLOUDY    40  37  89 E8        29.90F
MOOSE LAKE     CLOUDY    36  34  93 E6        29.92F
HINCKLEY       CLOUDY    37  37 100 E13       29.92F
CLOQUET        DRIZZLE   36  36 100 E9        29.96F
MCGREGOR       CLOUDY    36  36 100 E13       29.91F
$$
MNZ071>073-080-081-089-090-097-098-240900-
   Southwest Minnesota

CITY           SKY/WX    TMP DP  RH WIND       PRES   REMARKS
MONTEVIDEO     DRIZZLE   41  39  93 S16       29.77F
GRANITE FALLS  LGT RAIN  43  37  79 E9        29.78S
CANBY          CLOUDY    42  39  89 E10       29.75F
MARSHALL       CLOUDY    45  36  70 SE16      29.72F
REDWOOD FALLS  CLOUDY    44  38  79 SE15      29.77F
OLIVIA         CLOUDY    43  36  75 E13       29.78F
PIPESTONE      RAIN      43  41  93 SE8       29.68F
WINDOM         LGT RAIN  43  41  93 SE12      29.74F
WORTHINGTON    CLOUDY    43  37  81 SE14      29.71F
JACKSON        RAIN      43  39  87 SE8       29.74F
TRACY          CLOUDY    44  40  86 SE9       29.74F
SLAYTON        CLOUDY    42  41  96 E10       29.73F
$$
MNZ065>067-074>077-082>085-091>093-240900-
   South Central Minnesota

CITY           SKY/WX    TMP DP  RH WIND       PRES   REMARKS
MANKATO        CLOUDY    43  39  87 SE21      29.79F
NEW ULM        CLOUDY    43  39  87 SE10      29.78F
ST JAMES       LGT RAIN  45  41  87 E14       29.77F
FAIRMONT       CLOUDY    43  37  81 SE15      29.77R
GLENCOE        CLOUDY    43  37  78 E13       29.81F
FARIBAULT      CLOUDY    46  37  71 MISG      29.84F
OWATONNA       RAIN      43  39  87 SE21G31   29.82F
WASECA         LGT RAIN  41  34  75 SE21G28   29.82F
ALBERT LEA     DRIZZLE   43  43 100 SE16G29   29.79F
$$
MNZ078>079-086>088-094>096-240900-
   Southeast Minnesota

CITY           SKY/WX    TMP DP  RH WIND       PRES   REMARKS
ROCHESTER      LGT RAIN  41  37  86 SE21      29.85F FOG
RED WING       RAIN      45  39  81 SE21G28   29.88F
STANTON        CLOUDY    44  38  81 SE16      29.83F
DODGE CENTER   LGT RAIN  45  41  87 SE22      29.84F
WINONA         DRIZZLE   41  36  81 SE15      29.94F
AUSTIN         CLOUDY    43  39  87 SE18G25   29.82F
PRESTON        CLOUDY    41  37  87 SE13G22   29.89F
$$
ABBREVIATIONS USED IN REMARKS
   TC - TEMPERATURES IN CELSIUS
  WCI - WIND CHILL INDEX
   HX - HEAT INDEX
  VSB - VISIBILITY
$$


USA.gov is the U.S. government's official web portal to all federal, state and local government web resources and services.